| time (UTC) | temp F | wind direction | speed knots | gust knots | rain 1hr in | rain 24hr in | rain mn in | humidity % | barometer mb |
| 20260510104419 | 76 | 161 | 0.0 | 3.5 | 0.00 | 0.00 | 0.00 | 85 | 1009.6 |
| 20260510103916 | 76 | 187 | 0.0 | 3.5 | 0.00 | 0.00 | 0.00 | 85 | 1009.5 |
| 20260510103414 | 76 | 189 | 0.9 | 2.6 | 0.00 | 0.00 | 0.00 | 85 | 1009.4 |
| 20260510102908 | 76 | 116 | 1.7 | 5.2 | 0.00 | 0.00 | 0.00 | 85 | 1009.5 |
| 20260510102404 | 76 | 156 | 1.7 | 8.7 | 0.00 | 0.00 | 0.00 | 86 | 1009.5 |
| 20260510101856 | 76 | 331 | 0.0 | 0.9 | 0.00 | 0.00 | 0.00 | 86 | 1009.4 |
| 20260510101354 | 76 | 163 | 0.0 | 0.0 | 0.00 | 0.00 | 0.00 | 86 | 1009.4 |
| 20260510100850 | 76 | 176 | 0.0 | 0.9 | 0.00 | 0.00 | 0.00 | 86 | 1009.3 |
| 20260510100347 | 76 | 200 | 0.0 | 0.9 | 0.00 | 0.00 | 0.00 | 86 | 1009.6 |
| 20260510095844 | 76 | 173 | 1.7 | 5.2 | 0.00 | 0.00 | 0.00 | 86 | 1009.4 |
| 20260510095333 | 76 | 216 | 0.0 | 2.6 | 0.00 | 0.00 | 0.00 | 86 | 1009.2 |
| 20260510094832 | 76 | 171 | 4.3 | 5.2 | 0.00 | 0.00 | 0.00 | 86 | 1009.2 |
| 20260510094327 | 76 | 174 | 0.0 | 3.5 | 0.00 | 0.00 | 0.00 | 86 | 1009.3 |
| 20260510093819 | 76 | 156 | 0.0 | 2.6 | 0.00 | 0.00 | 0.00 | 86 | 1009.3 |
| 20260510093315 | 76 | 182 | 0.0 | 3.5 | 0.00 | 0.00 | 0.00 | 86 | 1009.5 |
| 20260510092811 | 76 | 152 | 0.0 | 0.0 | 0.00 | 0.00 | 0.00 | 86 | 1009.4 |
| 20260510092307 | 76 | 167 | 0.0 | 0.9 | 0.00 | 0.00 | 0.00 | 86 | 1009.4 |
| 20260510091803 | 76 | 208 | 0.0 | 2.6 | 0.00 | 0.00 | 0.00 | 86 | 1009.5 |
| 20260510091301 | 76 | 187 | 0.9 | 6.1 | 0.00 | 0.00 | 0.00 | 86 | 1009.4 |
| 20260510090757 | 75 | 216 | 0.0 | 0.9 | 0.00 | 0.00 | 0.00 | 86 | 1009.4 |
| 20260510090254 | 75 | 242 | 1.7 | 6.1 | 0.00 | 0.00 | 0.00 | 86 | 1009.5 |
| 20260510085749 | 75 | 200 | 0.9 | 5.2 | 0.00 | 0.00 | 0.00 | 86 | 1009.5 |
| 20260510085243 | 75 | 167 | 1.7 | 6.1 | 0.00 | 0.00 | 0.00 | 86 | 1009.4 |
| 20260510084740 | 75 | 187 | 1.7 | 3.5 | 0.00 | 0.00 | 0.00 | 86 | 1009.5 |
| 20260510084237 | 75 | 192 | 0.0 | 2.6 | 0.00 | 0.00 | 0.00 | 86 | 1009.3 |
| 20260510083733 | 75 | 166 | 0.0 | 2.6 | 0.00 | 0.00 | 0.00 | 87 | 1009.3 |
| 20260510083230 | 75 | 152 | 0.0 | 0.9 | 0.00 | 0.00 | 0.00 | 86 | 1009.3 |
| 20260510082726 | 75 | 13 | 0.0 | 0.0 | 0.00 | 0.00 | 0.00 | 86 | 1009.3 |
| 20260510082223 | 75 | 176 | 0.0 | 2.6 | 0.00 | 0.00 | 0.00 | 86 | 1009.1 |
| 20260510081722 | 75 | 144 | 0.0 | 0.0 | 0.00 | 0.00 | 0.00 | 86 | 1009.4 |
| 20260510081218 | 75 | 228 | 0.0 | 2.6 | 0.00 | 0.00 | 0.00 | 86 | 1009.2 |
| 20260510080713 | 75 | 113 | 0.0 | 0.0 | 0.00 | 0.00 | 0.00 | 86 | 1009.2 |
| 20260510080209 | 75 | 171 | 0.0 | 0.0 | 0.00 | 0.00 | 0.00 | 86 | 1009.4 |
| 20260510075706 | 75 | 203 | 0.0 | 0.0 | 0.00 | 0.00 | 0.00 | 86 | 1009.1 |
| 20260510075204 | 75 | 180 | 0.0 | 0.0 | 0.00 | 0.00 | 0.00 | 86 | 1009.1 |
| 20260510074701 | 75 | 183 | 0.0 | 2.6 | 0.00 | 0.00 | 0.00 | 86 | 1008.9 |
| 20260510074157 | 75 | 187 | 0.0 | 3.5 | 0.00 | 0.00 | 0.00 | 86 | 1009.1 |
| 20260510073654 | 75 | 203 | 0.0 | 0.9 | 0.00 | 0.00 | 0.00 | 86 | 1009.2 |
| 20260510073149 | 75 | 294 | 0.0 | 5.2 | 0.00 | 0.00 | 0.00 | 86 | 1009.0 |
| 20260510072645 | 75 | 167 | 0.0 | 2.6 | 0.00 | 0.00 | 0.00 | 86 | 1009.2 |
| 20260510072142 | 75 | 186 | 0.0 | 2.6 | 0.00 | 0.00 | 0.00 | 86 | 1009.2 |
| 20260510071638 | 75 | 160 | 0.0 | 3.5 | 0.00 | 0.00 | 0.00 | 85 | 1009.0 |
| 20260510071136 | 75 | 167 | 0.9 | 5.2 | 0.00 | 0.00 | 0.00 | 85 | 1009.0 |
| 20260510070633 | 75 | 172 | 0.9 | 2.6 | 0.00 | 0.00 | 0.00 | 85 | 1009.1 |
| 20260510070131 | 75 | 179 | 2.6 | 3.5 | 0.00 | 0.00 | 0.00 | 85 | 1009.2 |
| 20260510065626 | 75 | 167 | 0.0 | 3.5 | 0.00 | 0.00 | 0.00 | 85 | 1009.2 |
| 20260510065122 | 75 | 155 | 1.7 | 6.1 | 0.00 | 0.00 | 0.00 | 85 | 1009.3 |
| 20260510064619 | 75 | 170 | 3.5 | 5.2 | 0.00 | 0.00 | 0.00 | 84 | 1009.1 |
| 20260510064116 | 75 | 179 | 0.9 | 5.2 | 0.00 | 0.00 | 0.00 | 84 | 1009.3 |
| 20260510063612 | 75 | 178 | 0.0 | 5.2 | 0.00 | 0.00 | 0.00 | 84 | 1009.3 |
| 20260510063109 | 75 | 178 | 2.6 | 5.2 | 0.00 | 0.00 | 0.00 | 83 | 1009.5 |
| 20260510062605 | 76 | 164 | 6.1 | 7.0 | 0.00 | 0.00 | 0.00 | 83 | 1009.5 |
| 20260510062100 | 76 | 203 | 0.0 | 0.0 | 0.00 | 0.00 | 0.00 | 82 | 1009.7 |
| 20260510061551 | 76 | 175 | 0.0 | 3.5 | 0.00 | 0.00 | 0.00 | 81 | 1009.4 |
| 20260510061048 | 76 | 153 | 0.0 | 7.0 | 0.00 | 0.00 | 0.00 | 81 | 1009.6 |
| 20260510060545 | 76 | 137 | 1.7 | 2.6 | 0.00 | 0.00 | 0.00 | 80 | 1009.5 |
| 20260510060041 | 76 | 160 | 6.1 | 7.0 | 0.00 | 0.00 | 0.00 | 80 | 1009.6 |
| 20260510055537 | 76 | 188 | 2.6 | 8.7 | 0.00 | 0.00 | 0.00 | 81 | 1009.3 |
| 20260510055036 | 76 | 162 | 2.6 | 6.1 | 0.00 | 0.00 | 0.00 | 80 | 1009.9 |
| 20260510054531 | 76 | 152 | 4.3 | 7.0 | 0.00 | 0.00 | 0.00 | 80 | 1009.9 |
| 20260510054026 | 77 | 195 | 3.5 | 5.2 | 0.00 | 0.00 | 0.00 | 80 | 1009.6 |
| 20260510053521 | 76 | 136 | 0.0 | 11.3 | 0.00 | 0.00 | 0.00 | 81 | 1009.8 |
| 20260510053018 | 76 | 163 | 1.7 | 5.2 | 0.00 | 0.00 | 0.00 | 82 | 1009.6 |
| 20260510052514 | 77 | 177 | 0.0 | 3.5 | 0.00 | 0.00 | 0.00 | 82 | 1010.1 |
| 20260510052010 | 77 | 127 | 0.0 | 0.9 | 0.00 | 0.00 | 0.00 | 82 | 1009.9 |
| 20260510051506 | 77 | 170 | 0.0 | 6.1 | 0.00 | 0.00 | 0.00 | 82 | 1009.8 |
| 20260510051003 | 77 | 144 | 0.0 | 0.0 | 0.00 | 0.00 | 0.00 | 82 | 1009.9 |
| 20260510050500 | 77 | 132 | 3.5 | 6.1 | 0.00 | 0.00 | 0.00 | 82 | 1010.1 |
| 20260510045957 | 77 | 111 | 0.9 | 7.0 | 0.00 | 0.00 | 0.00 | 82 | 1010.1 |
| 20260510045454 | 77 | 147 | 4.3 | 6.1 | 0.00 | 0.00 | 0.00 | 82 | 1009.9 |
| 20260510044950 | 77 | 146 | 0.0 | 3.5 | 0.00 | 0.00 | 0.00 | 82 | 1010.3 |
| 20260510044447 | 77 | 130 | 0.0 | 2.6 | 0.00 | 0.00 | 0.00 | 82 | 1010.4 |
| 20260510043944 | 77 | 72 | 0.0 | 6.1 | 0.00 | 0.00 | 0.00 | 82 | 1010.2 |
| 20260510043440 | 78 | 60 | 0.0 | 5.2 | 0.00 | 0.00 | 0.00 | 81 | 1010.4 |
| 20260510042938 | 78 | 55 | 0.9 | 6.1 | 0.00 | 0.00 | 0.00 | 81 | 1010.6 |
| 20260510042434 | 78 | 61 | 2.6 | 3.5 | 0.00 | 0.00 | 0.00 | 81 | 1010.6 |
| 20260510041930 | 78 | 73 | 0.9 | 2.6 | 0.00 | 0.00 | 0.00 | 82 | 1010.4 |
| 20260510041427 | 78 | 161 | 1.7 | 3.5 | 0.00 | 0.00 | 0.00 | 82 | 1010.3 |
| 20260510040925 | 78 | 54 | 0.0 | 2.6 | 0.00 | 0.00 | 0.00 | 81 | 1010.5 |
| 20260510040421 | 78 | 115 | 0.0 | 3.5 | 0.00 | 0.00 | 0.00 | 81 | 1010.4 |
| 20260510035917 | 78 | 87 | 0.0 | 0.9 | 0.00 | 0.00 | 0.00 | 81 | 1010.5 |
| 20260510035413 | 78 | 61 | 0.0 | 2.6 | 0.00 | 0.00 | 0.00 | 81 | 1010.4 |
| 20260510034908 | 78 | 102 | 2.6 | 5.2 | 0.00 | 0.00 | 0.00 | 81 | 1010.0 |
| 20260510034407 | 78 | 167 | 0.9 | 8.7 | 0.00 | 0.00 | 0.00 | 81 | 1009.9 |
| 20260510033902 | 78 | 160 | 0.0 | 2.6 | 0.00 | 0.00 | 0.00 | 81 | 1010.2 |
| 20260510033359 | 78 | 68 | 1.7 | 3.5 | 0.00 | 0.00 | 0.00 | 81 | 1010.2 |
| 20260510032855 | 78 | 78 | 0.0 | 3.5 | 0.00 | 0.00 | 0.00 | 82 | 1010.3 |
| 20260510032352 | 78 | 65 | 1.7 | 2.6 | 0.00 | 0.00 | 0.00 | 82 | 1010.3 |
| 20260510031848 | 78 | 60 | 1.7 | 7.0 | 0.00 | 0.00 | 0.00 | 82 | 1010.5 |
| 20260510031343 | 78 | 72 | 0.0 | 5.2 | 0.00 | 0.00 | 0.00 | 82 | 1010.3 |
| 20260510030843 | 78 | 53 | 1.7 | 8.7 | 0.00 | 0.00 | 0.00 | 81 | 1010.3 |
| 20260510030340 | 78 | 46 | 0.0 | 0.9 | 0.00 | 0.00 | 0.00 | 81 | 1010.0 |
| 20260510025838 | 78 | 52 | 2.6 | 8.7 | 0.00 | 0.00 | 0.00 | 81 | 1010.2 |
| 20260510025335 | 78 | 48 | 3.5 | 8.7 | 0.00 | 0.00 | 0.00 | 80 | 1010.0 |
| 20260510024831 | 78 | 67 | 0.9 | 7.0 | 0.00 | 0.00 | 0.00 | 80 | 1009.7 |
| 20260510024328 | 78 | 38 | 0.9 | 3.5 | 0.00 | 0.00 | 0.00 | 80 | 1009.8 |
| 20260510023825 | 78 | 60 | 0.9 | 3.5 | 0.00 | 0.00 | 0.00 | 80 | 1009.5 |
| 20260510023321 | 78 | 103 | 0.9 | 0.9 | 0.00 | 0.00 | 0.00 | 79 | 1009.5 |
| 20260510022818 | 79 | 80 | 0.9 | 5.2 | 0.00 | 0.00 | 0.00 | 78 | 1009.7 |
| 20260510022317 | 79 | 56 | 0.0 | 0.9 | 0.00 | 0.00 | 0.00 | 77 | 1009.5 |
| 20260510021817 | 79 | 41 | 0.0 | 6.1 | 0.00 | 0.00 | 0.00 | 75 | 1009.6 |
| 20260510021315 | 80 | 113 | 1.7 | 5.2 | 0.00 | 0.00 | 0.00 | 70 | 1009.4 |
| 20260510020811 | 80 | 63 | 0.0 | 0.9 | 0.00 | 0.00 | 0.00 | 69 | 1009.0 |
| 20260510020306 | 80 | 91 | 0.0 | 0.9 | 0.00 | 0.00 | 0.00 | 69 | 1008.8 |
| 20260510015802 | 80 | 131 | 0.0 | 5.2 | 0.00 | 0.00 | 0.00 | 70 | 1008.7 |
| 20260510015258 | 80 | 120 | 0.0 | 5.2 | 0.00 | 0.00 | 0.00 | 70 | 1008.4 |
| 20260510014753 | 80 | 146 | 0.0 | 5.2 | 0.00 | 0.00 | 0.00 | 70 | 1008.2 |
| 20260510014250 | 80 | 176 | 1.7 | 5.2 | 0.00 | 0.00 | 0.00 | 70 | 1008.1 |
| 20260510013746 | 80 | 163 | 5.2 | 7.0 | 0.00 | 0.00 | 0.00 | 69 | 1008.4 |
| 20260510013242 | 80 | 71 | 0.0 | 2.6 | 0.00 | 0.00 | 0.00 | 69 | 1008.0 |
| 20260510012737 | 80 | 176 | 0.0 | 6.1 | 0.00 | 0.00 | 0.00 | 68 | 1007.8 |
| 20260510012232 | 81 | 141 | 0.0 | 0.0 | 0.00 | 0.00 | 0.00 | 67 | 1008.1 |
| 20260510011732 | 81 | 89 | 0.0 | 0.9 | 0.00 | 0.00 | 0.00 | 67 | 1007.9 |
| 20260510011227 | 81 | 58 | 0.0 | 3.5 | 0.00 | 0.00 | 0.00 | 66 | 1007.8 |
| 20260510010725 | 81 | 169 | 4.3 | 8.7 | 0.00 | 0.00 | 0.00 | 65 | 1007.0 |
| 20260510010221 | 81 | 146 | 4.3 | 8.7 | 0.00 | 0.00 | 0.00 | 63 | 1007.3 |
| 20260510005718 | 82 | 106 | 3.5 | 6.1 | 0.00 | 0.00 | 0.00 | 62 | 1007.3 |
| 20260510005214 | 82 | 170 | 0.0 | 11.3 | 0.00 | 0.00 | 0.00 | 61 | 1007.3 |
| 20260510004713 | 82 | 183 | 0.0 | 5.2 | 0.00 | 0.00 | 0.00 | 60 | 1007.2 |
| 20260510004211 | 83 | 116 | 0.0 | 0.0 | 0.00 | 0.00 | 0.00 | 59 | 1007.3 |
| 20260510003708 | 83 | 160 | 0.0 | 2.6 | 0.00 | 0.00 | 0.00 | 58 | 1007.4 |
| 20260510003203 | 84 | 139 | 2.6 | 9.6 | 0.00 | 0.00 | 0.00 | 56 | 1007.3 |
| 20260510002702 | 85 | 163 | 4.3 | 9.6 | 0.00 | 0.00 | 0.00 | 53 | 1007.4 |
| 20260510002200 | 86 | 203 | 0.0 | 3.5 | 0.00 | 0.00 | 0.00 | 48 | 1007.2 |
| 20260510001657 | 86 | 146 | 0.0 | 0.0 | 0.00 | 0.00 | 0.00 | 42 | 1007.1 |
| 20260510001156 | 86 | 195 | 0.0 | 5.2 | 0.00 | 0.00 | 0.00 | 40 | 1007.2 |
| 20260510000651 | 86 | 173 | 1.7 | 3.5 | 0.00 | 0.00 | 0.00 | 40 | 1007.0 |
| 20260510000148 | 87 | 157 | 3.5 | 8.7 | 0.00 | 0.00 | 0.00 | 39 | 1006.9 |
| 20260509235645 | 87 | 131 | 2.6 | 7.0 | 0.00 | 0.00 | 0.00 | 38 | 1006.8 |
| 20260509235141 | 88 | 52 | 0.0 | 5.2 | 0.00 | 0.00 | 0.00 | 40 | 1006.8 |
| 20260509234637 | 88 | 166 | 3.5 | 7.0 | 0.00 | 0.00 | 0.00 | 40 | 1006.6 |
| 20260509234135 | 88 | 148 | 4.3 | 8.7 | 0.00 | 0.00 | 0.00 | 39 | 1006.8 |
| 20260509233633 | 89 | 175 | 3.5 | 6.1 | 0.00 | 0.00 | 0.00 | 36 | 1006.7 |
| 20260509233130 | 89 | 201 | 5.2 | 8.7 | 0.00 | 0.00 | 0.00 | 39 | 1006.5 |
| 20260509232625 | 90 | 181 | 1.7 | 6.1 | 0.00 | 0.00 | 0.00 | 36 | 1006.5 |
| 20260509232123 | 91 | 174 | 0.0 | 2.6 | 0.00 | 0.00 | 0.00 | 34 | 1006.7 |
| 20260509231619 | 91 | 174 | 0.0 | 2.6 | 0.00 | 0.00 | 0.00 | 36 | 1006.7 |
| 20260509231117 | 90 | 160 | 0.9 | 3.5 | 0.00 | 0.00 | 0.00 | 42 | 1006.7 |
| 20260509230614 | 90 | 69 | 0.0 | 0.9 | 0.00 | 0.00 | 0.00 | 45 | 1006.6 |
| 20260509230111 | 91 | 119 | 2.6 | 6.1 | 0.00 | 0.00 | 0.00 | 44 | 1006.5 |
| 20260509225607 | 91 | 160 | 0.9 | 6.1 | 0.00 | 0.00 | 0.00 | 45 | 1006.4 |
| 20260509225102 | 91 | 180 | 0.9 | 6.1 | 0.00 | 0.00 | 0.00 | 47 | 1006.4 |
| 20260509224558 | 91 | 174 | 0.0 | 5.2 | 0.00 | 0.00 | 0.00 | 49 | 1006.4 |
| 20260509224055 | 92 | 95 | 0.0 | 2.6 | 0.00 | 0.00 | 0.00 | 45 | 1006.3 |
| 20260509223552 | 95 | 96 | 0.0 | 0.9 | 0.00 | 0.00 | 0.00 | 38 | 1006.4 |
| 20260509223050 | 93 | 281 | 0.0 | 0.0 | 0.00 | 0.00 | 0.00 | 38 | 1006.3 |
| 20260509222545 | 92 | 289 | 0.0 | 0.0 | 0.00 | 0.00 | 0.00 | 43 | 1006.2 |
| 20260509222042 | 93 | 285 | 0.0 | 0.0 | 0.00 | 0.00 | 0.00 | 38 | 1006.6 |
| 20260509221537 | 93 | 231 | 0.0 | 0.0 | 0.00 | 0.00 | 0.00 | 38 | 1006.3 |
| 20260509221033 | 93 | 178 | 0.0 | 0.0 | 0.00 | 0.00 | 0.00 | 37 | 1006.3 |
| 20260509220529 | 95 | 317 | 0.0 | 0.0 | 0.00 | 0.00 | 0.00 | 38 | 1006.1 |
| 20260509220026 | 95 | 349 | 0.0 | 0.0 | 0.00 | 0.00 | 0.00 | 39 | 1006.2 |
| 20260509215521 | 95 | 279 | 0.9 | 0.9 | 0.00 | 0.00 | 0.00 | 36 | 1006.3 |
| 20260509215019 | 95 | 293 | 0.0 | 0.0 | 0.00 | 0.00 | 0.00 | 38 | 1006.3 |
| 20260509214516 | 94 | 320 | 0.0 | 0.0 | 0.00 | 0.00 | 0.00 | 38 | 1006.5 |
| 20260509214013 | 94 | 259 | 0.0 | 0.0 | 0.00 | 0.00 | 0.00 | 41 | 1006.1 |
| 20260509213508 | 94 | 254 | 0.0 | 0.9 | 0.00 | 0.00 | 0.00 | 37 | 1006.2 |
| 20260509213006 | 95 | 230 | 2.6 | 5.2 | 0.00 | 0.00 | 0.00 | 37 | 1006.1 |
| 20260509212503 | 93 | 166 | 0.0 | 3.5 | 0.00 | 0.00 | 0.00 | 39 | 1006.2 |
| 20260509212000 | 93 | 43 | 0.9 | 3.5 | 0.00 | 0.00 | 0.00 | 37 | 1006.5 |
| 20260509211455 | 93 | 150 | 3.5 | 5.2 | 0.00 | 0.00 | 0.00 | 39 | 1006.2 |
| 20260509210952 | 94 | 179 | 0.0 | 0.0 | 0.00 | 0.00 | 0.00 | 36 | 1006.1 |
| 20260509210449 | 93 | 231 | 0.0 | 0.0 | 0.00 | 0.00 | 0.00 | 39 | 1006.3 |
| 20260509205944 | 94 | 157 | 0.0 | 5.2 | 0.00 | 0.00 | 0.00 | 38 | 1006.4 |
| 20260509205439 | 94 | 42 | 1.7 | 2.6 | 0.00 | 0.00 | 0.00 | 37 | 1006.3 |
| 20260509204935 | 92 | 294 | 0.0 | 0.0 | 0.00 | 0.00 | 0.00 | 43 | 1006.3 |
| 20260509204432 | 93 | 170 | 0.0 | 3.5 | 0.00 | 0.00 | 0.00 | 40 | 1006.4 |
| 20260509203928 | 94 | 274 | 0.0 | 3.5 | 0.00 | 0.00 | 0.00 | 40 | 1006.2 |
| 20260509203424 | 95 | 312 | 0.0 | 2.6 | 0.00 | 0.00 | 0.00 | 41 | 1006.3 |
| 20260509202922 | 95 | 269 | 0.0 | 0.0 | 0.00 | 0.00 | 0.00 | 40 | 1006.5 |
| 20260509202418 | 94 | 49 | 0.0 | 0.0 | 0.00 | 0.00 | 0.00 | 40 | 1006.6 |
| 20260509201913 | 93 | 252 | 0.0 | 0.0 | 0.00 | 0.00 | 0.00 | 42 | 1006.8 |
| 20260509201408 | 92 | 247 | 0.0 | 0.0 | 0.00 | 0.00 | 0.00 | 41 | 1006.7 |
| 20260509200906 | 91 | 287 | 0.0 | 0.0 | 0.00 | 0.00 | 0.00 | 43 | 1007.0 |
| 20260509200405 | 91 | 314 | 0.0 | 2.6 | 0.00 | 0.00 | 0.00 | 42 | 1006.7 |
| 20260509195902 | 92 | 317 | 0.0 | 0.0 | 0.00 | 0.00 | 0.00 | 41 | 1007.0 |
| 20260509195402 | 91 | 6 | 0.0 | 0.0 | 0.00 | 0.00 | 0.00 | 39 | 1007.0 |
| 20260509194902 | 93 | 278 | 0.0 | 3.5 | 0.00 | 0.00 | 0.00 | 40 | 1007.1 |
| 20260509194359 | 92 | 59 | 0.0 | 0.0 | 0.00 | 0.00 | 0.00 | 42 | 1006.9 |
| 20260509193856 | 92 | 33 | 0.0 | 0.0 | 0.00 | 0.00 | 0.00 | 42 | 1006.9 |
| 20260509193355 | 92 | 163 | 0.9 | 2.6 | 0.00 | 0.00 | 0.00 | 41 | 1007.1 |
| 20260509192852 | 91 | 330 | 0.0 | 0.0 | 0.00 | 0.00 | 0.00 | 42 | 1007.0 |
| 20260509192348 | 91 | 332 | 0.0 | 3.5 | 0.00 | 0.00 | 0.00 | 45 | 1007.1 |
| 20260509191844 | 90 | 346 | 0.0 | 2.6 | 0.00 | 0.00 | 0.00 | 51 | 1007.1 |
| 20260509191340 | 90 | 340 | 2.6 | 6.1 | 0.00 | 0.00 | 0.00 | 46 | 1007.2 |
| 20260509190836 | 91 | 314 | 0.0 | 3.5 | 0.00 | 0.00 | 0.00 | 44 | 1007.0 |
| 20260509190333 | 91 | 28 | 0.0 | 0.9 | 0.00 | 0.00 | 0.00 | 44 | 1007.1 |
| 20260509185830 | 90 | 13 | 0.9 | 2.6 | 0.00 | 0.00 | 0.00 | 46 | 1007.0 |
| 20260509185327 | 90 | 39 | 2.6 | 2.6 | 0.00 | 0.00 | 0.00 | 43 | 1007.2 |
| 20260509184824 | 89 | 36 | 2.6 | 3.5 | 0.00 | 0.00 | 0.00 | 45 | 1007.1 |
| 20260509184321 | 90 | 48 | 0.0 | 0.9 | 0.00 | 0.00 | 0.00 | 44 | 1007.4 |
| 20260509183817 | 89 | 332 | 0.0 | 2.6 | 0.00 | 0.00 | 0.00 | 53 | 1007.5 |
| 20260509183307 | 89 | 267 | 0.0 | 0.9 | 0.00 | 0.00 | 0.00 | 51 | 1007.8 |
| 20260509182803 | 87 | 328 | 0.0 | 0.9 | 0.00 | 0.00 | 0.00 | 56 | 1007.6 |
| 20260509182300 | 87 | 323 | 0.0 | 0.0 | 0.00 | 0.00 | 0.00 | 53 | 1007.9 |
| 20260509181757 | 86 | 95 | 0.0 | 0.0 | 0.00 | 0.00 | 0.00 | 56 | 1007.9 |
| 20260509181254 | 86 | 349 | 4.3 | 8.7 | 0.00 | 0.00 | 0.00 | 56 | 1008.0 |
| 20260509180751 | 86 | 340 | 1.7 | 5.2 | 0.00 | 0.00 | 0.00 | 59 | 1008.1 |
| 20260509180248 | 87 | 327 | 7.0 | 7.0 | 0.00 | 0.00 | 0.00 | 57 | 1008.2 |
| 20260509175744 | 86 | 355 | 0.0 | 2.6 | 0.00 | 0.00 | 0.00 | 62 | 1008.4 |
| 20260509175241 | 87 | 320 | 0.0 | 6.1 | 0.00 | 0.00 | 0.00 | 59 | 1008.4 |
| 20260509174737 | 87 | 327 | 0.0 | 0.9 | 0.00 | 0.00 | 0.00 | 61 | 1008.5 |
| 20260509174232 | 84 | 310 | 0.0 | 0.0 | 0.00 | 0.00 | 0.00 | 65 | 1008.7 |
| 20260509173729 | 84 | 327 | 0.0 | 2.6 | 0.00 | 0.00 | 0.00 | 63 | 1008.6 |
| 20260509173225 | 85 | 293 | 0.0 | 0.0 | 0.00 | 0.00 | 0.00 | 63 | 1008.8 |
| 20260509172721 | 84 | 289 | 0.0 | 0.0 | 0.00 | 0.00 | 0.00 | 65 | 1008.8 |
| 20260509172217 | 84 | 284 | 0.0 | 0.0 | 0.00 | 0.00 | 0.00 | 63 | 1008.7 |
| 20260509171713 | 85 | 248 | 0.0 | 0.9 | 0.00 | 0.00 | 0.00 | 65 | 1008.9 |
| 20260509171210 | 84 | 263 | 0.0 | 0.0 | 0.00 | 0.00 | 0.00 | 65 | 1008.8 |
| 20260509170707 | 84 | 265 | 0.0 | 0.9 | 0.00 | 0.00 | 0.00 | 66 | 1008.9 |
| 20260509170202 | 84 | 192 | 0.0 | 0.9 | 0.00 | 0.00 | 0.00 | 67 | 1008.8 |
| 20260509165701 | 84 | 266 | 0.0 | 0.0 | 0.00 | 0.00 | 0.00 | 69 | 1009.0 |
| 20260509165156 | 83 | 284 | 0.0 | 0.9 | 0.00 | 0.00 | 0.00 | 71 | 1008.9 |
| 20260509164652 | 83 | 229 | 0.0 | 2.6 | 0.00 | 0.00 | 0.00 | 73 | 1008.9 |
| 20260509164148 | 83 | 208 | 1.7 | 2.6 | 0.00 | 0.00 | 0.00 | 72 | 1009.1 |
| 20260509163646 | 83 | 218 | 0.0 | 0.0 | 0.00 | 0.00 | 0.00 | 72 | 1008.9 |
| 20260509163142 | 83 | 243 | 0.0 | 0.0 | 0.00 | 0.00 | 0.00 | 73 | 1008.8 |
| 20260509162639 | 83 | 223 | 0.0 | 3.5 | 0.00 | 0.00 | 0.00 | 73 | 1008.8 |
| 20260509162134 | 83 | 286 | 0.0 | 0.0 | 0.00 | 0.00 | 0.00 | 72 | 1009.0 |
| 20260509161625 | 83 | 244 | 0.0 | 0.0 | 0.00 | 0.00 | 0.00 | 72 | 1009.0 |
| 20260509161120 | 83 | 268 | 0.0 | 0.0 | 0.00 | 0.00 | 0.00 | 73 | 1008.6 |
| 20260509160617 | 83 | 227 | 0.0 | 0.0 | 0.00 | 0.00 | 0.00 | 72 | 1008.7 |
| 20260509160112 | 83 | 291 | 0.0 | 0.0 | 0.00 | 0.00 | 0.00 | 73 | 1008.5 |
| 20260509155609 | 82 | 323 | 0.0 | 0.0 | 0.00 | 0.00 | 0.00 | 75 | 1008.8 |
| 20260509155105 | 82 | 122 | 0.0 | 0.9 | 0.00 | 0.00 | 0.00 | 75 | 1008.6 |
| 20260509154600 | 81 | 305 | 0.0 | 3.5 | 0.00 | 0.00 | 0.00 | 77 | 1008.7 |
| 20260509154058 | 80 | 282 | 0.0 | 0.9 | 0.00 | 0.00 | 0.00 | 79 | 1008.7 |
| 20260509153555 | 80 | 166 | 2.6 | 6.1 | 0.00 | 0.00 | 0.00 | 78 | 1008.5 |
| 20260509153052 | 80 | 150 | 0.9 | 2.6 | 0.00 | 0.00 | 0.00 | 79 | 1008.3 |
| 20260509152548 | 80 | 176 | 0.0 | 5.2 | 0.00 | 0.00 | 0.00 | 78 | 1008.6 |
| 20260509152046 | 80 | 147 | 0.0 | 0.0 | 0.00 | 0.00 | 0.00 | 79 | 1008.8 |
| 20260509151541 | 79 | 94 | 0.0 | 0.0 | 0.00 | 0.00 | 0.00 | 81 | 1008.8 |
| 20260509151039 | 78 | 264 | 0.0 | 0.0 | 0.00 | 0.00 | 0.00 | 81 | 1008.6 |
| 20260509150536 | 78 | 170 | 0.0 | 3.5 | 0.00 | 0.00 | 0.00 | 81 | 1008.1 |
| 20260509150035 | 78 | 151 | 0.0 | 0.9 | 0.00 | 0.00 | 0.00 | 80 | 1008.5 |
| 20260509145530 | 79 | 142 | 0.0 | 0.0 | 0.00 | 0.00 | 0.00 | 80 | 1008.7 |
| 20260509145025 | 78 | 153 | 0.0 | 0.0 | 0.00 | 0.00 | 0.00 | 80 | 1008.8 |
| 20260509144522 | 79 | 166 | 3.5 | 3.5 | 0.00 | 0.00 | 0.00 | 80 | 1008.4 |
| 20260509144020 | 79 | 136 | 0.0 | 0.0 | 0.00 | 0.00 | 0.00 | 81 | 1008.7 |
| 20260509143517 | 79 | 178 | 0.0 | 0.0 | 0.00 | 0.00 | 0.00 | 82 | 1008.7 |
| 20260509143015 | 79 | 220 | 0.0 | 0.0 | 0.00 | 0.00 | 0.00 | 82 | 1008.9 |
| 20260509142510 | 79 | 154 | 0.0 | 0.0 | 0.00 | 0.00 | 0.00 | 83 | 1009.2 |
| 20260509142005 | 79 | 219 | 0.0 | 0.0 | 0.00 | 0.00 | 0.00 | 84 | 1009.2 |
| 20260509141502 | 79 | 293 | 0.0 | 0.0 | 0.00 | 0.00 | 0.00 | 85 | 1008.9 |
| 20260509140959 | 79 | 292 | 0.0 | 0.0 | 0.00 | 0.00 | 0.00 | 87 | 1008.6 |
| 20260509140455 | 78 | 233 | 0.0 | 0.0 | 0.00 | 0.00 | 0.00 | 89 | 1008.7 |
| 20260509135954 | 77 | 263 | 0.0 | 0.9 | 0.00 | 0.00 | 0.00 | 89 | 1009.0 |
| 20260509135451 | 77 | 275 | 0.0 | 0.0 | 0.00 | 0.00 | 0.00 | 90 | 1009.1 |
| 20260509134948 | 77 | 287 | 0.0 | 0.0 | 0.00 | 0.00 | 0.00 | 90 | 1008.4 |
| 20260509134445 | 77 | 317 | 0.0 | 0.0 | 0.00 | 0.00 | 0.00 | 90 | 1008.5 |
| 20260509133943 | 77 | 313 | 0.0 | 0.0 | 0.00 | 0.00 | 0.00 | 91 | 1008.5 |
| 20260509133439 | 77 | 310 | 0.0 | 0.0 | 0.00 | 0.00 | 0.00 | 91 | 1008.7 |
| 20260509132937 | 76 | 309 | 0.0 | 0.0 | 0.00 | 0.00 | 0.00 | 91 | 1008.9 |
| 20260509132435 | 76 | 264 | 0.0 | 0.0 | 0.00 | 0.00 | 0.00 | 91 | 1008.8 |
| 20260509131932 | 76 | 269 | 0.0 | 0.0 | 0.00 | 0.00 | 0.00 | 91 | 1008.9 |
| 20260509131429 | 76 | 253 | 0.0 | 0.9 | 0.00 | 0.00 | 0.00 | 91 | 1008.7 |
| 20260509130926 | 76 | 290 | 0.0 | 0.0 | 0.00 | 0.00 | 0.00 | 91 | 1008.7 |
| 20260509130421 | 76 | 234 | 0.0 | 0.0 | 0.00 | 0.00 | 0.00 | 91 | 1008.8 |
| 20260509125918 | 76 | 244 | 0.0 | 0.0 | 0.00 | 0.00 | 0.00 | 91 | 1008.5 |
| 20260509125415 | 76 | 159 | 0.0 | 0.0 | 0.00 | 0.00 | 0.00 | 91 | 1008.8 |
| 20260509124911 | 75 | 167 | 0.0 | 0.0 | 0.00 | 0.00 | 0.00 | 91 | 1008.7 |
| 20260509124408 | 75 | 153 | 0.0 | 0.0 | 0.00 | 0.00 | 0.00 | 91 | 1008.9 |
| 20260509123906 | 75 | 148 | 0.0 | 0.0 | 0.00 | 0.00 | 0.00 | 91 | 1008.9 |
| 20260509123403 | 75 | 148 | 0.0 | 0.0 | 0.00 | 0.00 | 0.00 | 91 | 1008.9 |
| 20260509122858 | 75 | 168 | 0.0 | 0.0 | 0.00 | 0.00 | 0.00 | 91 | 1008.5 |
| 20260509122355 | 75 | 169 | 0.0 | 0.0 | 0.00 | 0.00 | 0.00 | 91 | 1008.6 |
| 20260509121852 | 75 | 169 | 0.0 | 0.0 | 0.00 | 0.00 | 0.00 | 91 | 1008.4 |
| 20260509121349 | 75 | 129 | 0.0 | 0.0 | 0.00 | 0.00 | 0.00 | 91 | 1008.7 |
| 20260509120848 | 75 | 52 | 0.0 | 0.0 | 0.00 | 0.00 | 0.00 | 91 | 1008.6 |
| 20260509120345 | 75 | 32 | 0.0 | 0.0 | 0.00 | 0.00 | 0.00 | 91 | 1008.7 |
| 20260509115843 | 75 | 23 | 0.0 | 0.0 | 0.00 | 0.00 | 0.00 | 91 | 1008.9 |
| 20260509115340 | 75 | 23 | 0.0 | 0.0 | 0.00 | 0.00 | 0.00 | 91 | 1008.7 |
| 20260509114838 | 75 | 23 | 0.0 | 0.0 | 0.00 | 0.00 | 0.00 | 91 | 1008.7 |
| 20260509114336 | 75 | 23 | 0.0 | 0.0 | 0.00 | 0.00 | 0.00 | 91 | 1008.6 |
| 20260509113835 | 75 | 23 | 0.0 | 0.0 | 0.00 | 0.00 | 0.00 | 91 | 1008.6 |
| 20260509113332 | 75 | 23 | 0.0 | 0.0 | 0.00 | 0.00 | 0.00 | 91 | 1008.7 |
| 20260509112828 | 75 | 22 | 0.0 | 0.0 | 0.00 | 0.00 | 0.00 | 90 | 1008.4 |
| 20260509112326 | 75 | 21 | 0.0 | 0.0 | 0.00 | 0.00 | 0.00 | 90 | 1008.6 |
| 20260509111822 | 75 | 21 | 0.0 | 0.0 | 0.00 | 0.00 | 0.00 | 90 | 1008.5 |
| 20260509111320 | 75 | 21 | 0.0 | 0.0 | 0.00 | 0.00 | 0.00 | 90 | 1008.4 |
| 20260509110817 | 75 | 21 | 0.0 | 0.0 | 0.00 | 0.00 | 0.00 | 90 | 1008.7 |
| 20260509110313 | 75 | 21 | 0.0 | 0.0 | 0.00 | 0.00 | 0.00 | 90 | 1008.3 |
| 20260509105812 | 75 | 21 | 0.0 | 0.0 | 0.00 | 0.00 | 0.00 | 90 | 1008.0 |
| 20260509105309 | 75 | 21 | 0.0 | 0.0 | 0.00 | 0.00 | 0.00 | 90 | 1008.0 |
| 20260509104806 | 75 | 21 | 0.0 | 0.0 | 0.00 | 0.00 | 0.00 | 90 | 1007.9 |